{"data":{"norad_id":43820,"epoch":"2026-09-20T02:37:57.106272Z","epoch_age_seconds":62859,"freshness":"FRESH","line1":"1 43820U 18099BQ  26263.10968873  .00005529  00000+0  23001-3 0  9994","line2":"2 43820  97.3863 314.1879 0007248 346.9169  13.1879 15.24156361426989","mean_motion":15.24156361,"eccentricity":0.0007248,"inclination_deg":97.3863,"raan_deg":314.1879,"arg_perigee_deg":346.9169,"mean_anomaly_deg":13.1879,"bstar":0.00023001,"rev_number":42698,"period_min":94.478495569524,"perigee_km":488.33945585724,"apogee_km":498.30031976181,"semimajor_km":6871.4568878095,"source":"CELESTRAK","updated_at":"2026-09-20T09:00:14.411593Z"}}